Location: Tel Aviv
(32.0670°N, 34.7670°E)
Time: 13:49:31
(UTC+02:00)

NOAA 19 - Visible Passes

Search period start: 05 March 2024 00:00
Search period end: 15 March 2024 00:00
Orbit: 840 x 859 km, 99.1° (Epoch: 05 March)

Date Brightness Start Highest point End Pass type
(mag) Time Alt. Az. Time Alt. Az. Time Alt. Az.
05 Mar 7.1 19:06:22 13° NE 19:06:22 13° NE 19:07:34 10° NNE visible
05 Mar 7.4 20:48:20 19° NNW 20:48:20 19° NNW 20:49:53 10° NNW visible
06 Mar 7.2 18:53:51 11° NE 18:53:51 11° NE 18:54:16 10° NE visible
06 Mar 7.1 20:35:49 22° NNW 20:35:49 22° NNW 20:37:44 10° NNW visible
07 Mar 6.9 20:23:19 25° N 20:23:19 25° N 20:25:31 10° NNW visible
08 Mar 6.7 20:10:48 27° N 20:10:48 27° N 20:13:14 10° N visible
09 Mar 6.6 19:58:18 27° NNE 19:58:18 27° NNE 20:00:53 10° N visible
10 Mar 6.6 19:45:47 25° NNE 19:45:47 25° NNE 19:48:27 10° N visible
10 Mar 8.0 21:27:45 13° NW 21:27:45 13° NW 21:28:25 10° NW visible
11 Mar 6.6 19:33:17 22° NE 19:33:17 22° NE 19:35:55 10° NNE visible
11 Mar 7.7 21:15:15 17° NW 21:15:15 17° NW 21:16:37 10° NW visible
12 Mar 6.7 19:20:46 19° NE 19:20:46 19° NE 19:23:16 10° NNE visible
12 Mar 7.4 21:02:44 21° NW 21:02:44 21° NW 21:04:40 10° NNW visible
13 Mar 6.9 19:08:16 16° NE 19:08:16 16° NE 19:10:26 10° NNE visible
13 Mar 7.1 20:50:14 26° NW 20:50:14 26° NW 20:52:37 10° NNW visible
14 Mar 7.1 18:55:46 12° NE 18:55:46 12° NE 18:57:14 10° NE visible
14 Mar 6.7 20:37:44 30° NNW 20:37:44 30° NNW 20:40:29 10° NNW visible
